Location: Baggettsville
(36.4767°N, 86.7303°W)
Time: 09:12:37
(UTC+00:00)

ISS - Pass Details

Date: 06 October 2021
Orbit: 417 x 423 km, 51.6° (Epoch: 15 October)

Event Time Altitude Azimuth Distance (km) Brightness Sun altitude
Rises 23:45:17 0° 316° (NW) 2,363 0.7 -5.4°
Reaches altitude 10° 23:47:26 10° 323° (NW) 1,497 -0.4 -5.8°
Maximum altitude 23:50:40 43° 37° (NE) 597 -3.3 -6.4°
Drops below altitude 10° 23:53:53 10° 110° (ESE) 1,494 -1.5 -7.1°
Enters shadow 23:54:24 - 113° (ESE) 1,693 -1.3 -7.2°
